This demonstration page uses our WeatherBlox Daily Observations layout. Learn more.

Left ArrowRight Arrow

47.50024, -111.30081

Hourly Observations for May 28, 2017

Temp ( °F °C ) Dew Point ( °F °C ) Humidity (%) Winds ( mph kmh ) Pressure ( in mb ) Visibility ( mi km ) Precip ( " mm )
12:53 am 00:53 Partly Cloudy 53 11.7 41 5 64 64 SW 8 13 30.12 1020 10 16 0.00 0.00
1:53 am 01:53 Mostly Clear 51 10.6 41 5 69 69 E 5 7 30.12 1020 10 16 0.00 0.00
2:53 am 02:53 Clear 44 6.7 39 3.9 83 83 W 3 6 30.14 1021 10 16 0.00 0.00
3:53 am 03:53 Mostly Cloudy 47 8.3 41 5 80 80 NNW 8 13 30.16 1021 10 16 0.00 0.00
4:53 am 04:53 Mostly Cloudy 50 10 43 6.1 77 77 SSW 14 22 30.14 1021 10 16 0.00 0.00
5:53 am 05:53 Cloudy 49 9.4 42 5.6 77 77 SSW 15 24 30.15 1021 10 16 0.00 0.03
6:53 am 06:53 Mostly Cloudy 49 9.4 42 5.6 77 77 WSW 7 11 30.20 1023 10 16 0.00 0.00
7:53 am 07:53 Sunny 57 13.9 43 6.1 60 60 SW 8 13 30.18 1022 10 16 0.00 0.00
8:53 am 08:53 Mostly Cloudy 60 15.6 43 6.1 53 53 W 7 11 30.21 1023 10 16 0.00 0.00
9:53 am 09:53 Mostly Sunny 65 18.3 43 6.1 45 45 NNW 8 13 30.21 1023 10 16 0.00 0.00
10:53 am 10:53 Mostly Sunny 66 18.9 42 5.6 42 42 VRB 3 6 30.21 1023 10 16 0.00 0.00
11:53 am 11:53 Mostly Cloudy 69 20.6 42 5.6 38 38 NNE 7 11 30.21 1023 10 16 0.00 0.00
12:53 pm 12:53 Partly Cloudy 70 21.1 41 5 35 35 NNE 9 15 30.20 1023 10 16 0.00 0.00
1:53 pm 13:53 Mostly Cloudy 72 22.2 42 5.6 34 34 VRB 6 9 30.19 1022 10 16 0.00 0.00
2:53 pm 14:53 Mostly Sunny 72 22.2 41 5 33 33 NE 6 9 30.19 1022 10 16 0.00 0.00
3:53 pm 15:53 Partly Cloudy 73 22.8 42 5.6 33 33 NE 17 28 30.18 1022 10 16 0.00 0.00
4:53 pm 16:53 Mostly Sunny 71 21.7 43 6.1 36 36 E 9 15 30.17 1022 10 16 0.00 0.00
5:53 pm 17:53 Mostly Cloudy 71 21.7 41 5 34 34 Calm 30.18 1022 10 16 0.00 0.00
6:53 pm 18:53 Cloudy 66 18.9 45 7.2 47 47 SSW 7 11 30.19 1022 10 16 0.00 0.00
7:53 pm 19:53 Cloudy 61 16.1 49 9.4 65 65 SW 7 11 30.18 1022 10 16 0.00 0.03
8:24 pm 20:24 Cloudy with Light Rain 57 13.9 50 10 78 78 W 10 17 30.15 1021 8 13 0.01 0.25
8:53 pm 20:53 Mostly Cloudy 56 13.3 51 10.6 84 84 SW 7 11 30.21 1023 10 16 0.01 0.25
9:53 pm 21:53 Clear 53 11.7 47 8.3 80 80 SW 3 6 30.21 1023 10 16 0.00 0.00
10:53 pm 22:53 Clear 53 11.7 45 7.2 74 74 W 6 9 30.21 1023 10 16 0.00 0.00
11:53 pm 23:53 Clear 48 8.9 44 6.7 86 86 WSW 5 7 30.22 1023 10 16 0.00 0.00

Powered by AerisWeather